Regional Weather Roundup
Issued by NWS Upton, NY

Current Version | Previous Version | Graphics & Text | Print | Product List | Glossary Off
Versions: 1 2 3 4 5 6 7 8 9 10 11 12 13 14 15 16 17 18 19 20 21 22 23 24 25 26 27 28 29 30 31 32 33 34 35 36 37 38 39 40 41 42 43 44 45 46 47

000
ASUS41 KOKX 210405
RWROKX

REGIONAL WEATHER ROUNDUP
NATIONAL WEATHER SERVICE NEW YORK NY
1200 AM EDT TUE OCT 21 2014

NOTE: "FAIR" INDICATES FEW OR NO CLOUDS BELOW 12,000 FEET WITH NO
SIGNIFICANT WEATHER AND/OR OBSTRUCTIONS TO VISIBILITY.

NYZ071-072-176-178-NJZ106-104-210500-
NEW YORK CITY METRO AREA


CITY           SKY/WX    TMP DP  RH WIND       PRES   REMARKS
CENTRAL PARK   CLOUDY    58  43  57 VRB3G17   29.99F
LAGUARDIA APRT CLOUDY    58  44  60 SW9       29.97S
KENNEDY INTL   MOCLDY    58  45  62 SW13      29.98F
NEWARK/LIBERTY CLOUDY    54  45  71 S7        29.97F
BRNX BOT. GARD   N/A     57  41  54 W10       29.98F
TETERBORO      CLOUDY    54  44  69 SW5       29.96S
$$

NYZ177-179-078>081-210500-
LONG ISLAND NEW YORK

CITY           SKY/WX    TMP DP  RH WIND       PRES   REMARKS
FARMINGDALE    MOCLDY    59  47  64 SW9       29.98F
ISLIP          MOCLDY    57  47  69 SW8       29.96F
SHIRLEY        MOCLDY    60  49  66 SW6       29.99F
WESTHAMPTON    MOCLDY    62  50  64 S12       29.99F
MONTAUK POINT    N/A     61  50  67 SW9       30.01F
$$

NYZ052-065-067-210500-
HUDSON VALLEY

CITY           SKY/WX    TMP DP  RH WIND       PRES   REMARKS
WHITE PLAINS   CLOUDY    52  43  71 CALM      29.96F
NEWBURGH       NOT AVBL
MONTGOMERY     CLOUDY    45  40  82 CALM      29.95S
POUGHKEEPSIE   CLOUDY    49  41  74 CALM      29.95F
ALBANY         CLOUDY    52  38  58 S8        29.93F
$$

NJZ001-105-106-008-010-013-015-019>022-104-210500-
NEW JERSEY

CITY           SKY/WX    TMP DP  RH WIND       PRES   REMARKS
NEWARK/LIBERTY CLOUDY    54  45  71 S7        29.97F
TETERBORO      CLOUDY    54  44  69 SW5       29.96S
CALDWELL       CLOUDY    47  40  76 CALM      29.97F
MORRISTOWN     CLOUDY    46  43  87 CALM      29.96F
SOMERVILLE     CLOUDY    46  41  82 CALM      29.95F
SUSSEX         CLOUDY    49  42  77 CALM      29.95F
ANDOVER          N/A     49  42  77 CALM      29.95F
TRENTON        CLOUDY    51  43  74 S5        29.96F
MILLVILLE      MOCLDY    52  46  80 CALM      29.96F
ATLANTIC CITY  MOCLDY    54  45  71 SW3       29.98F
WRIGHTSTOWN    MOCLDY    51  45  78 S5        29.95F
TOMS RIVER     MOCLDY    48  43  81 CALM      29.98F
BELMAR         MOCLDY    54  41  62 SW3       29.97F
$$

PAZ047>061-062-071-210500-
EASTERN PENNSYLVANIA

CITY           SKY/WX    TMP DP  RH WIND       PRES   REMARKS
PHILADELPHIA   CLOUDY    57  44  62 S6        29.96F
ALLENTOWN      LGT RAIN  54  45  71 SW5       29.95F
SCRANTON       CLOUDY    54  41  61 SW3       29.91F
$$

CTZ002-004>006-009-010-012-RIZ004-006-007-MAZ004-011-015-210500-
SOUTHERN NEW ENGLAND
 IN CT

CITY           SKY/WX    TMP DP  RH WIND       PRES   REMARKS
BRADLEY INTL   CLOUDY    47  40  76 CALM      29.97F
HARTFORD       CLOUDY    49  42  77 S3        29.98F
DANBURY        CLOUDY    44  30  57 CALM      29.98F
WTRBRY/OXFORD  CLOUDY    50  37  62 CALM      29.97F
BRIDGEPORT     MOCLDY    60  49  66 SW13      29.97F
MERIDEN        CLOUDY    43  40  89 CALM      29.98F
NEW HAVEN      MOCLDY    62  48  60 SW6       29.97F
CHESTER        FAIR      46  43  87 CALM      29.99F
GROTON         CLOUDY    58  49  72 W6        29.99S
WILLIMANTIC    MOCLDY    41  38  89 CALM      30.01S

 IN RI

CITY           SKY/WX    TMP DP  RH WIND       PRES   REMARKS
PROVIDENCE     CLOUDY    45  40  82 CALM      30.01F
BLOCK ISLAND   MOCLDY    61  48  63 SW17G23   30.00S
WESTERLY       LGT RAIN  58  49  72 VRB3      30.00F

 IN MA

CITY           SKY/WX    TMP DP  RH WIND       PRES   REMARKS
BOSTON         CLOUDY    51  41  68 S5        30.01S
WORCESTER      CLOUDY    46  39  76 SW8       29.98S
WESTFIELD      CLOUDY    44  41  89 CALM      29.98S
PROVINCETOWN   MOCLDY    54  43  66 SW8       30.03S
NANTUCKET      MOCLDY    58  46  64 SW13      30.04F
$$

ANZ330-335-338-340-345-350-353-355-210500-
COASTAL MARINE OBSERVATIONS


STATION/POSITION TIME  SKY/WX   TEMP    WIND        PRES    VSBY  WAVE
                                AIR SEA DIR/SP/G                  HT/PER
                 (UTC)          (F)     (DEG/KT/KT) (MB)    (MI)  (FT/S)
NY HARB ENTRANCE NOT AVBL
4S FIRE IS       0400               63                N/A           6/ 6
20S FIRE ISLAND  0400            63 63  220/ 16/ 19 1015.1          6/ 6
23SW MTP         0400                                 N/A           5/ 6
HUDSON CANYON    0400            64 66  230/ 17/ 21 1015.8          5/ 6
EXECUTION ROCKS  0400            60 63  210/ 12/ 17   N/A
WESTERN LI SOUND 0400            59     180/ 10/ 12   N/A           0
CENTRAL LI SOUND 0300            61 64  230/ 12/ 14   N/A           2/ 3
EASTERN LI SOUND 0300            61 64  240/ 12/ 16   N/A
ROBBINS REEF     0400            56     200/ 10/ 12 1013.7
$$


>>>>>>>>>>>>>>>>>>>>>>>>>>>> KEY <<<<<<<<<<<<<<<<<<<<<<<<<<<
>                                                          <
>     SKY/WX - SKY CONDITION/PRESENT WEATHER               <
>     TMP    - TEMPERATURE IN FAHRENHEIT                   <
>     DP     - DEWPOINT IN FAHRENHEIT                      <
>     RH     - RELATIVE HUMIDITY IN PERCENT                <
>     WIND   - DIRECTION AND SPEED IN MPH                  <
>     PRES   - MEAN SEA LEVEL PRESSURE IN INCHES OF HG     <
>     WCI    - WIND CHILL INDEX                            <
>     VSB    - VISIBILITY IN MILES                         <
>     HX     - HEAT INDEX                                  <
>     TC     - TEMPERATURE IN CELSIUS                      <
>     VRB    - VARIABLE WIND DIRECTION                     <
>                                                          <
>>>>>>>>>>>>>>>>>>>>>>>>>>>> KEY <<<<<<<<<<<<<<<<<<<<<<<<<<<




USA.gov is the U.S. government's official web portal to all federal, state and local government web resources and services.